Weather History for Manhattan, KS

Change the Weather History Date:

Saturday, September 29, 2012

  Actual Average Record
Temperature  
Mean Temperature 59 °F 62 °F  
Max Temperature 75 °F 75 °F 93 °F (2002)
Min Temperature 42 °F 49 °F 36 °F (2003)
Degree Days  
Heating Degree Days 6 5  
Month to date heating degree days 79 61  
Since 1 July heating degree days 79 64  
Cooling Degree Days 0 2  
Month to date cooling degree days 125 152  
Year to date cooling degree days 1764 1335  
Growing Degree Days 8 (Base 50)    
Moisture  
Dew Point 46 °F    
Average Humidity 68    
Maximum Humidity 100    
Minimum Humidity 35    
Precipitation  
Precipitation 0.00 in 0.08 in 1.36 in (1998)
Month to date precipitation 2.54 3.09  
Year to date precipitation 20.21 27.63  
Sea Level Pressure  
Sea Level Pressure 30.13 in    
Wind  
Wind Speed 2 mph (NNE)    
Max Wind Speed 14 mph    
Max Gust Speed 17 mph    
Visibility 4 miles    
Events Fog    
T = Trace of Precipitation, MM = Missing Value Source: NWS Daily Summary

Daily Weather History Graph

Daily Weather History Graph

Search for Another Location

Airport:

Trip Planner

Search our weather history database for the weather conditions in past years. The results will help you decide how hot, cold, wet, or windy it might be!

Date:

Astronomy

Sep. 29, 2012 Rise Set
Actual Time 7:21 AM CDT 7:11 PM CDT
Civil Twilight 6:54 AM CDT 7:38 PM CDT
Nautical Twilight 6:23 AM CDT 8:09 PM CDT
Astronomical Twilight 5:52 AM CDT 8:40 PM CDT
Moon 6:45 PM CDT (9/29) 6:53 AM CDT (9/29)
Length of Visible Light 12h 43m
Length of Day
11h 50m
Full, 100% of the Moon is Illuminated
Sep 29
Full
Sep 29
Full
Oct 8
Last Quarter
Oct 15
New
Oct 21
First Quarter

Hourly Weather History & Observations

Time (CDT) Temp. Dew Point Humidity Pressure Visibility Wind Dir Wind Speed Gust Speed Precip Events Conditions
12:52 AM 50.0 °F 50.0 °F 100% 30.15 in 4.0 mi Calm Calm - N/A   Clear
1:12 AM 50.0 °F 48.2 °F 94% 30.15 in 1.8 mi Calm Calm - N/A   Clear
1:20 AM 50.0 °F 48.2 °F 94% 30.15 in 3.0 mi Calm Calm - N/A   Clear
1:52 AM 48.0 °F 48.0 °F 100% 30.15 in 5.0 mi Calm Calm - N/A   Clear
2:52 AM 48.0 °F 46.9 °F 96% 30.15 in 4.0 mi Calm Calm - N/A   Clear
3:13 AM 48.2 °F 48.2 °F 100% 30.15 in 1.8 mi Calm Calm - N/A   Clear
3:27 AM 46.4 °F 46.4 °F 100% 30.15 in 1.8 mi Calm Calm - N/A   Partly Cloudy
3:35 AM 44.6 °F 44.6 °F 100% 30.15 in 2.0 mi Calm Calm - N/A   Partly Cloudy
3:43 AM 46.4 °F 44.6 °F 93% 30.15 in 1.5 mi Calm Calm - N/A   Partly Cloudy
3:52 AM 45.0 °F 45.0 °F 100% 30.15 in 0.8 mi Calm Calm - N/A   Mist
3:58 AM 46.4 °F 46.4 °F 100% 30.15 in 1.2 mi Calm Calm - N/A   Partly Cloudy
4:13 AM 46.4 °F 46.4 °F 100% 30.15 in 0.5 mi Calm Calm - N/A Fog Fog
4:43 AM 44.6 °F 44.6 °F 100% 30.15 in 1.0 mi Calm Calm - N/A   Mist
4:52 AM 45.0 °F 45.0 °F 100% 30.14 in 0.5 mi Calm Calm - N/A Fog Fog
5:01 AM 44.6 °F 44.6 °F 100% 30.14 in 0.2 mi Calm Calm - N/A Fog Fog
5:13 AM 44.6 °F 44.6 °F 100% 30.15 in 0.8 mi Calm Calm - N/A   Mist
5:15 AM 44.6 °F 44.6 °F 100% 30.15 in 1.2 mi Calm Calm - N/A   Scattered Clouds
5:18 AM 46.4 °F 44.6 °F 93% 30.14 in 1.8 mi Calm Calm - N/A   Mostly Cloudy
5:41 AM 44.6 °F 44.6 °F 100% 30.14 in 0.2 mi Calm Calm - N/A Fog Fog
5:52 AM 42.1 °F 42.1 °F 100% 30.14 in 0.8 mi Calm Calm - N/A   Mist
6:29 AM 44.6 °F 44.6 °F 100% 30.15 in 1.2 mi Calm Calm - N/A   Scattered Clouds
6:36 AM 44.6 °F 44.6 °F 100% 30.15 in 3.0 mi Calm Calm - N/A   Partly Cloudy
6:50 AM 44.6 °F 42.8 °F 93% 30.15 in 1.8 mi Calm Calm - N/A   Clear
6:52 AM 44.1 °F 44.1 °F 100% 30.15 in 1.5 mi Calm Calm - N/A   Clear
7:19 AM 42.8 °F 42.8 °F 100% 30.16 in 0.8 mi Calm Calm - N/A   Clear
7:28 AM 42.8 °F 42.8 °F 100% 30.16 in 0.2 mi Calm Calm - 0.01 in Fog Fog
7:41 AM 44.6 °F 44.6 °F 100% 30.16 in 0.2 mi Calm Calm - 0.01 in Fog Fog
7:52 AM 45.0 °F 44.1 °F 97% 30.16 in 0.2 mi Calm Calm - 0.01 in Fog Fog
7:58 AM 46.4 °F 44.6 °F 93% 30.16 in 0.5 mi Calm Calm - N/A Fog Fog
8:04 AM 46.4 °F 46.4 °F 100% 30.16 in 2.0 mi Calm Calm - N/A   Clear
8:21 AM 48.2 °F 48.2 °F 100% 30.16 in 4.0 mi Calm Calm - N/A   Clear
8:52 AM 50.0 °F 48.9 °F 96% 30.18 in 7.0 mi Calm Calm - N/A   Clear
9:52 AM 57.0 °F 51.1 °F 81% 30.18 in 10.0 mi Calm Calm - N/A   Clear
10:52 AM 63.0 °F 51.1 °F 65% 30.17 in 10.0 mi ENE 3.5 mph - N/A   Clear
11:52 AM 68.0 °F 51.1 °F 55% 30.16 in 10.0 mi East 8.1 mph - N/A   Clear
12:52 PM 70.0 °F 46.9 °F 44% 30.14 in 10.0 mi NNE 9.2 mph - N/A   Clear
1:52 PM 72.0 °F 46.0 °F 40% 30.11 in 10.0 mi Variable 4.6 mph - N/A   Clear
2:52 PM 72.0 °F 44.1 °F 37% 30.08 in 10.0 mi Calm Calm - N/A   Clear
3:52 PM 73.9 °F 45.0 °F 35% 30.06 in 10.0 mi NE 3.5 mph - N/A   Clear
4:52 PM 73.4 °F 44.6 °F 36% 30.05 in 10.0 mi North 5.8 mph - N/A   Clear
5:52 PM 72.0 °F 45.0 °F 38% 30.05 in 10.0 mi North 3.5 mph - N/A   Clear
6:52 PM 68.0 °F 46.0 °F 45% 30.05 in 10.0 mi North 3.5 mph - N/A   Clear
7:52 PM 60.1 °F 48.0 °F 64% 30.05 in 10.0 mi Calm Calm - N/A   Clear
8:52 PM 57.0 °F 48.0 °F 72% 30.05 in 10.0 mi Calm Calm - N/A   Clear
9:52 PM 55.0 °F 48.9 °F 80% 30.06 in 10.0 mi Calm Calm - N/A   Clear
10:52 PM 54.0 °F 48.9 °F 83% 30.06 in 4.0 mi Calm Calm - N/A   Haze
11:52 PM 52.0 °F 50.0 °F 93% 30.06 in 10.0 mi Calm Calm - N/A   Clear